Weather History for Pensacola NAS, FL

Change the Weather History Date:

Sunday, November 25, 2012

  Actual Average Record
Temperature  
Mean Temperature 44 °F -  
Max Temperature 59 °F 67 °F 80 °F (2001)
Min Temperature 30 °F 48 °F 30 °F (2012)
Degree Days  
Heating Degree Days 20    
Growing Degree Days 0 (Base 50)    
Moisture  
Dew Point 36 °F    
Average Humidity 76    
Maximum Humidity 97    
Minimum Humidity 42    
Precipitation  
Precipitation 0.00 in - - ()
Sea Level Pressure  
Sea Level Pressure 30.18 in    
Wind  
Wind Speed 3 mph (ENE)    
Max Wind Speed 8 mph    
Max Gust Speed -    
Visibility 10 miles    
Events Rain , Snow    
Averages and records for this station are not official NWS values.
T = Trace of Precipitation, MM = Missing Value Source: NWS Daily Summary

Daily Weather History Graph

Daily Weather History Graph

Search for Another Location

Airport:

Trip Planner

Search our weather history database for the weather conditions in past years. The results will help you decide how hot, cold, wet, or windy it might be!

Date:

Astronomy

Nov. 25, 2012 Rise Set
Actual Time 6:23 AM CST 4:48 PM CST
Civil Twilight 5:57 AM CST 5:14 PM CST
Nautical Twilight 5:28 AM CST 5:44 PM CST
Astronomical Twilight 4:59 AM CST 6:13 PM CST
Moon 2:59 PM CST (11/25) 3:45 AM CST (11/25)
Length of Visible Light 11h 16m
Length of Day
10h 25m
Waxing Gibbous, 93% of the Moon is Illuminated
Nov 25
Waxing Gibbous
Nov 28
Full
Dec 6
Last Quarter
Dec 13
New
Dec 19
First Quarter

Hourly Weather History & Observations

Time (CST) Temp. Windchill Dew Point Humidity Pressure Visibility Wind Dir Wind Speed Gust Speed Precip Events Conditions
12:56 AM 34.0 °F 29.8 °F 30.0 °F 85% 30.17 in 10.0 mi NNW 4.6 mph - N/A   Clear
1:56 AM 35.1 °F 32.2 °F 28.9 °F 78% 30.17 in 10.0 mi North 3.5 mph - N/A   Clear
2:56 AM 34.0 °F - 28.9 °F 82% 30.18 in 10.0 mi Calm Calm - N/A   Clear
3:56 AM 30.9 °F - 28.9 °F 92% 30.18 in 10.0 mi Calm Calm - N/A   Clear
4:56 AM 30.0 °F 26.5 °F 27.0 °F 88% 30.18 in 10.0 mi North 3.5 mph - N/A   Clear
5:56 AM 32.0 °F 28.7 °F 28.9 °F 88% 30.19 in 10.0 mi North 3.5 mph - N/A   Clear
6:56 AM 30.0 °F - 28.9 °F 96% 30.22 in 10.0 mi Calm Calm - N/A   Clear
7:56 AM 46.0 °F - 36.0 °F 68% 30.24 in 10.0 mi Calm Calm - N/A   Clear
8:56 AM 52.0 °F - 32.0 °F 47% 30.25 in 10.0 mi ENE 8.1 mph - N/A   Clear
9:56 AM 55.0 °F - 33.1 °F 43% 30.25 in 10.0 mi ENE 5.8 mph - N/A   Clear
10:56 AM 57.9 °F - 35.1 °F 42% 30.22 in 10.0 mi Variable 5.8 mph - N/A   Clear
11:56 AM 57.0 °F - 37.9 °F 49% 30.19 in 10.0 mi ESE 8.1 mph - N/A   Clear
12:56 PM 59.0 °F - 41.0 °F 51% 30.17 in 10.0 mi Variable 4.6 mph - N/A   Clear
1:56 PM 57.2 °F - 41.0 °F 55% 30.16 in 10.0 mi East 5.8 mph - N/A   Partly Cloudy
2:56 PM 57.9 °F - 42.1 °F 56% 30.14 in 10.0 mi SSE 5.8 mph - N/A   Clear
3:56 PM 57.9 °F - 43.0 °F 58% 30.14 in 10.0 mi SSE 5.8 mph - N/A   Clear
4:56 PM 52.0 °F - 43.0 °F 71% 30.14 in 10.0 mi South 3.5 mph - N/A   Clear
5:28 PM 46.4 °F - 42.8 °F 87% 30.14 in 10.0 mi Calm Calm - N/A   Clear
5:56 PM 46.0 °F - 43.0 °F 89% 30.15 in 10.0 mi Calm Calm - N/A   Clear
6:56 PM 41.0 °F - 39.9 °F 96% 30.16 in 10.0 mi Calm Calm - 0.00 in Rain Light Rain
7:56 PM 41.0 °F - 39.9 °F 96% 30.16 in 10.0 mi Calm Calm - 0.00 in   Clear
8:56 PM 39.0 °F - 37.9 °F 96% 30.16 in 10.0 mi Calm Calm - 0.00 in   Clear
9:56 PM 39.0 °F - 37.9 °F 96% 30.16 in 9.0 mi Calm Calm - 0.00 in   Clear
10:56 PM 37.9 °F - 37.0 °F 97% 30.15 in 10.0 mi Calm Calm - 0.00 in Snow Light Snow
11:56 PM 39.0 °F - 37.9 °F 96% 30.14 in 10.0 mi Calm Calm - 0.00 in   Clear